contact:dominique.lefevre@mio.osupytheas.fr, maurice.libes@osupytheas.fr, didier.mallarino@osupytheas.fr
Project:EMSO http://www.emso-fr.org/EMSO-France
Depth: 2436.0 m
Title:EMSO Ligure Ouest : Data MII capteur MICROCAT
DateTime_Computer,Latitude,Longitude,Temperature,Conductivity,Pressure,DateTime_Instrument
DateTime_Computer,Latitude,Longitude,degC,S m-1,dbar,DateTime_Instrument
2019-10-14T00:02:29Z,42.805,6.029,13.2957,4.59986,2469.876,2019-10-14T02:02:54Z
2019-10-14T00:05:32Z,42.805,6.029,13.2957,4.60034,2469.876,2019-10-14T02:05:58Z
2019-10-14T00:08:35Z,42.805,6.029,13.2957,4.60031,2469.9,2019-10-14T02:09:01Z
2019-10-14T00:11:39Z,42.805,6.029,13.2958,4.60007,2469.9,2019-10-14T02:12:04Z
2019-10-14T00:14:42Z,42.805,6.029,13.2953,4.60003,2469.89,2019-10-14T02:15:07Z
2019-10-14T00:17:45Z,42.805,6.029,13.2959,4.59975,2469.9,2019-10-14T02:18:10Z
2019-10-14T00:20:48Z,42.805,6.029,13.2953,4.59984,2469.923,2019-10-14T02:21:14Z
2019-10-14T00:23:52Z,42.805,6.029,13.2957,4.60032,2469.876,2019-10-14T02:24:17Z
2019-10-14T00:26:55Z,42.805,6.029,13.2957,4.60066,2469.89,2019-10-14T02:27:20Z
2019-10-14T00:29:58Z,42.805,6.029,13.2957,4.60054,2469.9,2019-10-14T02:30:23Z
2019-10-14T00:33:01Z,42.805,6.029,13.2954,4.60021,2469.867,2019-10-14T02:33:27Z
2019-10-14T00:36:04Z,42.805,6.029,13.2956,4.60033,2469.853,2019-10-14T02:36:30Z
2019-10-14T00:39:08Z,42.805,6.029,13.2956,4.59999,2469.89,2019-10-14T02:39:33Z
2019-10-14T00:42:11Z,42.805,6.029,13.2957,4.59996,2469.876,2019-10-14T02:42:36Z
2019-10-14T00:45:14Z,42.805,6.029,13.2957,4.59991,2469.89,2019-10-14T02:45:40Z
2019-10-14T00:48:17Z,42.805,6.029,13.2956,4.59983,2469.853,2019-10-14T02:48:43Z
2019-10-14T00:51:21Z,42.805,6.029,13.2956,4.59981,2469.853,2019-10-14T02:51:46Z
2019-10-14T00:54:24Z,42.805,6.029,13.2955,4.59980,2469.89,2019-10-14T02:54:49Z
2019-10-14T00:57:27Z,42.805,6.029,13.2956,4.59984,2469.876,2019-10-14T02:57:52Z
2019-10-14T01:00:30Z,42.805,6.029,13.2958,4.59991,2469.89,2019-10-14T03:00:56Z
2019-10-14T01:03:33Z,42.805,6.029,13.2956,4.59987,2469.853,2019-10-14T03:03:59Z
2019-10-14T01:06:37Z,42.805,6.029,13.2957,4.60003,2469.867,2019-10-14T03:07:02Z
2019-10-14T01:09:40Z,42.805,6.029,13.2955,4.59993,2469.876,2019-10-14T03:10:05Z
2019-10-14T01:12:43Z,42.805,6.029,13.2952,4.60011,2469.853,2019-10-14T03:13:08Z
2019-10-14T01:15:46Z,42.805,6.029,13.2956,4.60001,2469.853,2019-10-14T03:16:11Z
2019-10-14T01:18:49Z,42.805,6.029,13.2957,4.60034,2469.867,2019-10-14T03:19:15Z
2019-10-14T01:21:53Z,42.805,6.029,13.2955,4.59993,2469.867,2019-10-14T03:22:18Z
2019-10-14T01:24:56Z,42.805,6.029,13.2957,4.60008,2469.853,2019-10-14T03:25:21Z
2019-10-14T01:27:59Z,42.805,6.029,13.2957,4.59983,2469.853,2019-10-14T03:28:24Z
2019-10-14T01:31:02Z,42.805,6.029,13.2957,4.59989,2469.853,2019-10-14T03:31:28Z
2019-10-14T01:34:06Z,42.805,6.029,13.2957,4.59984,2469.867,2019-10-14T03:34:31Z
2019-10-14T01:37:09Z,42.805,6.029,13.2953,4.59996,2469.876,2019-10-14T03:37:34Z
2019-10-14T01:40:12Z,42.805,6.029,13.2957,4.59993,2469.867,2019-10-14T03:40:37Z
2019-10-14T01:43:15Z,42.805,6.029,13.2954,4.60009,2469.89,2019-10-14T03:43:40Z
2019-10-14T01:46:18Z,42.805,6.029,13.2955,4.60006,2469.844,2019-10-14T03:46:44Z
2019-10-14T01:49:22Z,42.805,6.029,13.2951,4.59991,2469.853,2019-10-14T03:49:47Z
2019-10-14T01:52:25Z,42.805,6.029,13.2961,4.59991,2469.876,2019-10-14T03:52:50Z
2019-10-14T01:55:28Z,42.805,6.029,13.2955,4.59983,2469.844,2019-10-14T03:55:53Z
2019-10-14T01:58:31Z,42.805,6.029,13.2957,4.59987,2469.844,2019-10-14T03:58:57Z
2019-10-14T02:01:35Z,42.805,6.029,13.2957,4.59994,2469.853,2019-10-14T04:02:00Z
2019-10-14T02:04:38Z,42.805,6.029,13.2957,4.60009,2469.876,2019-10-14T04:05:03Z
2019-10-14T02:07:41Z,42.805,6.029,13.2955,4.60030,2469.853,2019-10-14T04:08:06Z
2019-10-14T02:10:44Z,42.805,6.029,13.2957,4.60015,2469.867,2019-10-14T04:11:09Z
2019-10-14T02:13:47Z,42.805,6.029,13.2953,4.60030,2469.853,2019-10-14T04:14:13Z
2019-10-14T02:16:51Z,42.805,6.029,13.2957,4.60008,2469.83,2019-10-14T04:17:16Z
2019-10-14T02:19:54Z,42.805,6.029,13.2952,4.60007,2469.853,2019-10-14T04:20:19Z
2019-10-14T02:22:57Z,42.805,6.029,13.2958,4.60000,2469.853,2019-10-14T04:23:22Z
2019-10-14T02:26:00Z,42.805,6.029,13.2958,4.60027,2469.844,2019-10-14T04:26:26Z
2019-10-14T02:29:03Z,42.805,6.029,13.2956,4.60014,2469.876,2019-10-14T04:29:29Z
2019-10-14T02:32:07Z,42.805,6.029,13.2956,4.60073,2469.89,2019-10-14T04:32:32Z
2019-10-14T02:35:10Z,42.805,6.029,13.2957,4.60049,2469.89,2019-10-14T04:35:35Z
2019-10-14T02:38:13Z,42.805,6.029,13.2956,4.60061,2469.867,2019-10-14T04:38:38Z
2019-10-14T02:41:16Z,42.805,6.029,13.2955,4.60042,2469.89,2019-10-14T04:41:42Z
2019-10-14T02:44:19Z,42.805,6.029,13.2953,4.60006,2469.876,2019-10-14T04:44:45Z
2019-10-14T02:47:23Z,42.805,6.029,13.2955,4.60009,2469.867,2019-10-14T04:47:48Z
2019-10-14T02:50:26Z,42.805,6.029,13.2960,4.60011,2469.853,2019-10-14T04:50:51Z
2019-10-14T02:53:29Z,42.805,6.029,13.2986,4.60023,2469.876,2019-10-14T04:53:54Z
2019-10-14T02:56:32Z,42.805,6.029,13.2982,4.60021,2469.83,2019-10-14T04:56:58Z
2019-10-14T02:59:36Z,42.805,6.029,13.2971,4.60000,2469.876,2019-10-14T05:00:01Z
2019-10-14T03:02:39Z,42.805,6.029,13.2958,4.60017,2469.876,2019-10-14T05:03:04Z
2019-10-14T03:05:42Z,42.805,6.029,13.2956,4.60029,2469.867,2019-10-14T05:06:07Z
2019-10-14T03:08:45Z,42.805,6.029,13.2959,4.60017,2469.867,2019-10-14T05:09:10Z
2019-10-14T03:11:48Z,42.805,6.029,13.2955,4.60007,2469.876,2019-10-14T05:12:14Z
2019-10-14T03:14:52Z,42.805,6.029,13.2958,4.59979,2469.853,2019-10-14T05:15:17Z
2019-10-14T03:17:55Z,42.805,6.029,13.2960,4.59987,2469.876,2019-10-14T05:18:20Z
2019-10-14T03:20:58Z,42.805,6.029,13.2954,4.59987,2469.876,2019-10-14T05:21:23Z
2019-10-14T03:24:01Z,42.805,6.029,13.2956,4.59984,2469.914,2019-10-14T05:24:27Z
2019-10-14T03:27:05Z,42.805,6.029,13.2961,4.59983,2469.9,2019-10-14T05:27:30Z
2019-10-14T03:30:08Z,42.805,6.029,13.2953,4.59986,2469.89,2019-10-14T05:30:33Z
2019-10-14T03:33:11Z,42.805,6.029,13.2953,4.59978,2469.9,2019-10-14T05:33:36Z
2019-10-14T03:36:14Z,42.805,6.029,13.2956,4.59981,2469.9,2019-10-14T05:36:40Z
2019-10-14T03:39:17Z,42.805,6.029,13.2957,4.59979,2469.89,2019-10-14T05:39:43Z
2019-10-14T03:42:21Z,42.805,6.029,13.2956,4.59979,2469.9,2019-10-14T05:42:46Z
2019-10-14T03:45:24Z,42.805,6.029,13.2958,4.59983,2469.9,2019-10-14T05:45:49Z
2019-10-14T03:48:27Z,42.805,6.029,13.2953,4.59979,2469.937,2019-10-14T05:48:52Z
2019-10-14T03:51:30Z,42.805,6.029,13.2957,4.59976,2469.876,2019-10-14T05:51:56Z
2019-10-14T03:54:33Z,42.805,6.029,13.2956,4.59988,2469.923,2019-10-14T05:54:59Z
2019-10-14T03:57:37Z,42.805,6.029,13.2958,4.59981,2469.914,2019-10-14T05:58:02Z
2019-10-14T04:00:40Z,42.805,6.029,13.2956,4.59980,2469.914,2019-10-14T06:01:05Z
2019-10-14T04:03:43Z,42.805,6.029,13.2957,4.59984,2469.914,2019-10-14T06:04:08Z
2019-10-14T04:06:46Z,42.805,6.029,13.2955,4.59982,2469.947,2019-10-14T06:07:12Z
2019-10-14T04:09:50Z,42.805,6.029,13.2955,4.59976,2469.923,2019-10-14T06:10:15Z
2019-10-14T04:12:53Z,42.805,6.029,13.2957,4.59981,2469.923,2019-10-14T06:13:18Z
2019-10-14T04:15:56Z,42.805,6.029,13.2954,4.59986,2469.937,2019-10-14T06:16:21Z
2019-10-14T04:18:59Z,42.805,6.029,13.2960,4.59988,2469.947,2019-10-14T06:19:24Z
2019-10-14T04:22:02Z,42.805,6.029,13.2955,4.59988,2469.9,2019-10-14T06:22:28Z
2019-10-14T04:25:06Z,42.805,6.029,13.2956,4.59986,2469.923,2019-10-14T06:25:31Z
2019-10-14T04:28:09Z,42.805,6.029,13.2952,4.59975,2469.96,2019-10-14T06:28:34Z
2019-10-14T04:31:12Z,42.805,6.029,13.2952,4.59973,2469.947,2019-10-14T06:31:37Z
2019-10-14T04:34:15Z,42.805,6.029,13.2958,4.59976,2469.937,2019-10-14T06:34:41Z
2019-10-14T04:37:19Z,42.805,6.029,13.2958,4.59997,2469.947,2019-10-14T06:37:44Z
2019-10-14T04:40:22Z,42.805,6.029,13.2956,4.60014,2469.96,2019-10-14T06:40:47Z
2019-10-14T04:43:25Z,42.805,6.029,13.2958,4.60001,2469.97,2019-10-14T06:43:50Z
2019-10-14T04:46:28Z,42.805,6.029,13.2958,4.59983,2469.96,2019-10-14T06:46:53Z
2019-10-14T04:49:31Z,42.805,6.029,13.2952,4.60000,2469.947,2019-10-14T06:49:57Z
2019-10-14T04:52:35Z,42.805,6.029,13.2956,4.59997,2469.984,2019-10-14T06:53:00Z
2019-10-14T04:55:38Z,42.805,6.029,13.2956,4.59999,2469.97,2019-10-14T06:56:03Z
2019-10-14T04:58:41Z,42.805,6.029,13.2957,4.60047,2469.937,2019-10-14T06:59:06Z
2019-10-14T05:01:44Z,42.805,6.029,13.2956,4.60046,2469.97,2019-10-14T07:02:09Z
2019-10-14T05:04:47Z,42.805,6.029,13.2957,4.60023,2469.97,2019-10-14T07:05:13Z
2019-10-14T05:07:51Z,42.805,6.029,13.2960,4.60054,2469.947,2019-10-14T07:08:16Z
2019-10-14T05:10:54Z,42.805,6.029,13.2959,4.59996,2469.97,2019-10-14T07:11:19Z
2019-10-14T05:13:57Z,42.805,6.029,13.2958,4.59973,2469.993,2019-10-14T07:14:22Z
2019-10-14T05:17:00Z,42.805,6.029,13.2956,4.59990,2469.97,2019-10-14T07:17:26Z
2019-10-14T05:20:03Z,42.805,6.029,13.2952,4.59992,2469.97,2019-10-14T07:20:29Z
2019-10-14T05:23:07Z,42.805,6.029,13.2953,4.60003,2469.984,2019-10-14T07:23:32Z
2019-10-14T05:26:10Z,42.805,6.029,13.2954,4.60002,2469.97,2019-10-14T07:26:35Z
2019-10-14T05:29:13Z,42.805,6.029,13.2954,4.59990,2469.97,2019-10-14T07:29:38Z
2019-10-14T05:32:16Z,42.805,6.029,13.2958,4.59982,2470.007,2019-10-14T07:32:42Z
2019-10-14T05:35:20Z,42.805,6.029,13.2958,4.59983,2470.007,2019-10-14T07:35:45Z
2019-10-14T05:38:23Z,42.805,6.029,13.2958,4.59988,2470.03,2019-10-14T07:38:48Z
2019-10-14T05:41:26Z,42.805,6.029,13.2953,4.59975,2469.993,2019-10-14T07:41:51Z
2019-10-14T05:44:29Z,42.805,6.029,13.2956,4.59981,2469.97,2019-10-14T07:44:54Z
2019-10-14T05:47:32Z,42.805,6.029,13.2955,4.59971,2469.993,2019-10-14T07:47:58Z
2019-10-14T05:50:35Z,42.805,6.029,13.2953,4.59971,2470.04,2019-10-14T07:51:01Z
2019-10-14T05:53:39Z,42.805,6.029,13.2954,4.59970,2470.007,2019-10-14T07:54:04Z
2019-10-14T05:56:42Z,42.805,6.029,13.2961,4.59966,2470.03,2019-10-14T07:57:07Z
2019-10-14T05:59:45Z,42.805,6.029,13.2956,4.59966,2470.017,2019-10-14T08:00:10Z
2019-10-14T06:02:48Z,42.805,6.029,13.2961,4.59962,2469.993,2019-10-14T08:03:14Z
2019-10-14T06:05:52Z,42.805,6.029,13.2959,4.59973,2470.04,2019-10-14T08:06:17Z
2019-10-14T06:08:55Z,42.805,6.029,13.2958,4.59980,2470.053,2019-10-14T08:09:20Z
2019-10-14T06:11:58Z,42.805,6.029,13.2966,4.59982,2470.017,2019-10-14T08:12:23Z
2019-10-14T06:15:01Z,42.805,6.029,13.2956,4.59997,2470.017,2019-10-14T08:15:27Z
2019-10-14T06:18:05Z,42.805,6.029,13.2961,4.59971,2470.053,2019-10-14T08:18:30Z
2019-10-14T06:21:08Z,42.805,6.029,13.2953,4.59973,2469.993,2019-10-14T08:21:33Z
2019-10-14T06:24:11Z,42.805,6.029,13.2957,4.59968,2470.053,2019-10-14T08:24:36Z
2019-10-14T06:27:14Z,42.805,6.029,13.3080,4.59968,2470.04,2019-10-14T08:27:40Z
2019-10-14T06:30:18Z,42.805,6.029,13.2957,4.59968,2470.03,2019-10-14T08:30:43Z
2019-10-14T06:33:21Z,42.805,6.029,13.2960,4.59988,2470.017,2019-10-14T08:33:46Z
2019-10-14T06:36:24Z,42.805,6.029,13.2953,4.59982,2470.03,2019-10-14T08:36:49Z
2019-10-14T06:39:27Z,42.805,6.029,13.2961,4.60019,2470.03,2019-10-14T08:39:53Z
2019-10-14T06:42:30Z,42.805,6.029,13.2967,4.59981,2470.04,2019-10-14T08:42:56Z
2019-10-14T06:45:34Z,42.805,6.029,13.2993,4.59997,2470.04,2019-10-14T08:45:59Z
2019-10-14T06:48:37Z,42.805,6.029,13.2976,4.60005,2470.03,2019-10-14T08:49:02Z
2019-10-14T06:51:40Z,42.805,6.029,13.2986,4.59979,2470.053,2019-10-14T08:52:05Z
2019-10-14T06:54:43Z,42.805,6.029,13.3002,4.59971,2470.04,2019-10-14T08:55:09Z
2019-10-14T06:57:47Z,42.805,6.029,13.2993,4.59988,2470.063,2019-10-14T08:58:12Z
2019-10-14T07:00:50Z,42.805,6.029,13.2989,4.60002,2470.04,2019-10-14T09:01:15Z
2019-10-14T07:03:53Z,42.805,6.029,13.2993,4.60011,2470.03,2019-10-14T09:04:18Z
2019-10-14T07:06:56Z,42.805,6.029,13.2997,4.60022,2470.053,2019-10-14T09:07:21Z
2019-10-14T07:09:59Z,42.805,6.029,13.3011,4.60035,2470.04,2019-10-14T09:10:25Z
2019-10-14T07:13:03Z,42.805,6.029,13.3010,4.60028,2470.063,2019-10-14T09:13:28Z
2019-10-14T07:16:06Z,42.805,6.029,13.3008,4.60024,2470.03,2019-10-14T09:16:31Z
2019-10-14T07:19:09Z,42.805,6.029,13.3027,4.59992,2470.077,2019-10-14T09:19:34Z
2019-10-14T07:22:12Z,42.805,6.029,13.3036,4.60025,2470.04,2019-10-14T09:22:38Z
2019-10-14T07:25:16Z,42.805,6.029,13.3050,4.60036,2470.063,2019-10-14T09:25:41Z
2019-10-14T07:28:19Z,42.805,6.029,13.2990,4.60014,2470.053,2019-10-14T09:28:44Z
2019-10-14T07:31:22Z,42.805,6.029,13.2996,4.60036,2470.017,2019-10-14T09:31:47Z
2019-10-14T07:34:25Z,42.805,6.029,13.3022,4.60030,2470.017,2019-10-14T09:34:50Z
2019-10-14T07:37:28Z,42.805,6.029,13.3039,4.60019,2470.04,2019-10-14T09:37:54Z
2019-10-14T07:40:32Z,42.805,6.029,13.3026,4.60001,2470.017,2019-10-14T09:40:57Z
2019-10-14T07:43:35Z,42.805,6.029,13.2987,4.60011,2470.04,2019-10-14T09:44:00Z
2019-10-14T07:46:38Z,42.805,6.029,13.3009,4.60028,2470.017,2019-10-14T09:47:03Z
2019-10-14T07:49:41Z,42.805,6.029,13.3008,4.60033,2470.053,2019-10-14T09:50:06Z
2019-10-14T07:52:44Z,42.805,6.029,13.2986,4.60041,2469.993,2019-10-14T09:53:10Z
2019-10-14T07:55:48Z,42.805,6.029,13.2996,4.59991,2470.053,2019-10-14T09:56:13Z
2019-10-14T07:58:51Z,42.805,6.029,13.2998,4.60024,2470.017,2019-10-14T09:59:16Z
2019-10-14T08:01:54Z,42.805,6.029,13.2990,4.60015,2470.053,2019-10-14T10:02:19Z
2019-10-14T08:04:57Z,42.805,6.029,13.3001,4.60027,2470.053,2019-10-14T10:05:22Z
2019-10-14T08:08:00Z,42.805,6.029,13.3005,4.60024,2470.077,2019-10-14T10:08:26Z
2019-10-14T08:11:04Z,42.805,6.029,13.3031,4.59997,2470.03,2019-10-14T10:11:29Z
2019-10-14T08:14:07Z,42.805,6.029,13.3035,4.60004,2470.04,2019-10-14T10:14:32Z
2019-10-14T08:17:10Z,42.805,6.029,13.3003,4.60024,2470.053,2019-10-14T10:17:35Z
2019-10-14T08:20:13Z,42.805,6.029,13.2978,4.60007,2470.04,2019-10-14T10:20:39Z
2019-10-14T08:23:16Z,42.805,6.029,13.2995,4.60002,2470.077,2019-10-14T10:23:42Z
2019-10-14T08:26:20Z,42.805,6.029,13.2996,4.60033,2470.017,2019-10-14T10:26:45Z
2019-10-14T08:29:23Z,42.805,6.029,13.2994,4.60025,2470.03,2019-10-14T10:29:48Z
2019-10-14T08:32:26Z,42.805,6.029,13.2970,4.59994,2469.993,2019-10-14T10:32:51Z
2019-10-14T08:35:29Z,42.805,6.029,13.2978,4.60009,2470.03,2019-10-14T10:35:55Z
2019-10-14T08:38:32Z,42.805,6.029,13.2988,4.60033,2470.03,2019-10-14T10:38:58Z
2019-10-14T08:41:36Z,42.805,6.029,13.3004,4.60037,2470.03,2019-10-14T10:42:01Z
2019-10-14T08:44:39Z,42.805,6.029,13.3000,4.60056,2470.007,2019-10-14T10:45:04Z
2019-10-14T08:47:42Z,42.805,6.029,13.3021,4.60017,2470.03,2019-10-14T10:48:07Z
2019-10-14T08:50:45Z,42.805,6.029,13.2979,4.60024,2470.017,2019-10-14T10:51:11Z
2019-10-14T08:53:49Z,42.805,6.029,13.3008,4.60029,2469.993,2019-10-14T10:54:14Z
2019-10-14T08:56:52Z,42.805,6.029,13.3012,4.60016,2470.017,2019-10-14T10:57:17Z
2019-10-14T08:59:55Z,42.805,6.029,13.3015,4.60026,2470.017,2019-10-14T11:00:20Z
2019-10-14T09:02:58Z,42.805,6.029,13.3004,4.60010,2470.017,2019-10-14T11:03:23Z
2019-10-14T09:06:01Z,42.805,6.029,13.3007,4.60028,2470.03,2019-10-14T11:06:27Z
2019-10-14T09:09:05Z,42.805,6.029,13.3032,4.60029,2470.053,2019-10-14T11:09:30Z
2019-10-14T09:12:08Z,42.805,6.029,13.3020,4.60020,2469.993,2019-10-14T11:12:33Z
2019-10-14T09:15:11Z,42.805,6.029,13.3009,4.60021,2470.03,2019-10-14T11:15:36Z
2019-10-14T09:18:14Z,42.805,6.029,13.3014,4.60023,2470.017,2019-10-14T11:18:40Z
2019-10-14T09:21:18Z,42.805,6.029,13.3007,4.60035,2469.97,2019-10-14T11:21:43Z
2019-10-14T09:24:21Z,42.805,6.029,13.3009,4.60034,2469.993,2019-10-14T11:24:46Z
2019-10-14T09:27:24Z,42.805,6.029,13.3014,4.59998,2470.03,2019-10-14T11:27:49Z
2019-10-14T09:30:27Z,42.805,6.029,13.2988,4.60015,2469.993,2019-10-14T11:30:52Z
2019-10-14T09:33:30Z,42.805,6.029,13.2987,4.60047,2469.993,2019-10-14T11:33:56Z
2019-10-14T09:36:34Z,42.805,6.029,13.3006,4.60039,2470.007,2019-10-14T11:36:59Z
2019-10-14T09:39:37Z,42.805,6.029,13.3001,4.59988,2469.993,2019-10-14T11:40:02Z
2019-10-14T09:42:40Z,42.805,6.029,13.2986,4.60029,2469.993,2019-10-14T11:43:05Z
2019-10-14T09:45:43Z,42.805,6.029,13.2975,4.60007,2469.984,2019-10-14T11:46:09Z
2019-10-14T09:48:47Z,42.805,6.029,13.2982,4.60028,2469.97,2019-10-14T11:49:12Z
2019-10-14T09:51:50Z,42.805,6.029,13.3007,4.60029,2469.993,2019-10-14T11:52:15Z
2019-10-14T09:54:53Z,42.805,6.029,13.3015,4.60024,2469.993,2019-10-14T11:55:18Z
2019-10-14T09:57:56Z,42.805,6.029,13.3004,4.60031,2470.007,2019-10-14T11:58:22Z
2019-10-14T10:00:59Z,42.805,6.029,13.3000,4.60019,2469.984,2019-10-14T12:01:25Z
2019-10-14T10:04:03Z,42.805,6.029,13.3009,4.59999,2469.97,2019-10-14T12:04:28Z
2019-10-14T10:07:06Z,42.805,6.029,13.3020,4.60013,2470.007,2019-10-14T12:07:31Z
2019-10-14T10:10:09Z,42.805,6.029,13.3029,4.59979,2469.993,2019-10-14T12:10:34Z
2019-10-14T10:13:12Z,42.805,6.029,13.3007,4.60002,2469.947,2019-10-14T12:13:38Z
2019-10-14T10:16:16Z,42.805,6.029,13.3007,4.60027,2469.923,2019-10-14T12:16:41Z
2019-10-14T10:19:19Z,42.805,6.029,13.3014,4.60022,2469.97,2019-10-14T12:19:44Z
2019-10-14T10:22:22Z,42.805,6.029,13.3017,4.59996,2469.947,2019-10-14T12:22:47Z
2019-10-14T10:25:25Z,42.805,6.029,13.3015,4.60031,2469.96,2019-10-14T12:25:50Z
2019-10-14T10:28:28Z,42.805,6.029,13.3014,4.60007,2469.97,2019-10-14T12:28:54Z
2019-10-14T10:31:32Z,42.805,6.029,13.3014,4.60002,2469.96,2019-10-14T12:31:57Z
2019-10-14T10:34:35Z,42.805,6.029,13.3031,4.60033,2469.947,2019-10-14T12:35:00Z
2019-10-14T10:37:38Z,42.805,6.029,13.3032,4.60068,2469.96,2019-10-14T12:38:03Z
2019-10-14T10:40:41Z,42.805,6.029,13.3001,4.59996,2469.923,2019-10-14T12:41:07Z
2019-10-14T10:43:45Z,42.805,6.029,13.3026,4.60020,2469.947,2019-10-14T12:44:10Z
2019-10-14T10:46:48Z,42.805,6.029,13.3051,4.60002,2469.923,2019-10-14T12:47:13Z
2019-10-14T10:49:51Z,42.805,6.029,13.2996,4.60003,2469.96,2019-10-14T12:50:16Z
2019-10-14T10:52:54Z,42.805,6.029,13.3035,4.60032,2469.96,2019-10-14T12:53:20Z
2019-10-14T10:55:57Z,42.805,6.029,13.2993,4.60035,2469.97,2019-10-14T12:56:23Z
2019-10-14T10:59:01Z,42.805,6.029,13.3012,4.59980,2469.947,2019-10-14T12:59:26Z
2019-10-14T11:02:04Z,42.805,6.029,13.3004,4.60035,2469.937,2019-10-14T13:02:29Z
2019-10-14T11:05:07Z,42.805,6.029,13.3038,4.59994,2469.947,2019-10-14T13:05:32Z
2019-10-14T11:08:10Z,42.805,6.029,13.3054,4.60049,2469.937,2019-10-14T13:08:36Z
2019-10-14T11:11:13Z,42.805,6.029,13.3051,4.60010,2469.923,2019-10-14T13:11:39Z
2019-10-14T11:14:17Z,42.805,6.029,13.3061,4.59975,2469.937,2019-10-14T13:14:42Z
2019-10-14T11:17:20Z,42.805,6.029,13.3029,4.59997,2469.923,2019-10-14T13:17:45Z
2019-10-14T11:20:23Z,42.805,6.029,13.3023,4.59991,2469.937,2019-10-14T13:20:48Z
2019-10-14T11:23:26Z,42.805,6.029,13.3014,4.59985,2469.914,2019-10-14T13:23:52Z
2019-10-14T11:26:30Z,42.805,6.029,13.2998,4.59973,2469.914,2019-10-14T13:26:55Z
2019-10-14T11:29:33Z,42.805,6.029,13.3000,4.59976,2469.937,2019-10-14T13:29:58Z
2019-10-14T11:32:36Z,42.805,6.029,13.2996,4.59980,2469.9,2019-10-14T13:33:01Z
2019-10-14T11:36:01Z,42.805,6.029,13.2998,4.59985,2469.9,2019-10-14T13:36:05Z
2019-10-14T11:38:44Z,42.805,6.029,13.3014,4.60008,2469.914,2019-10-14T13:39:09Z
2019-10-14T11:41:47Z,42.805,6.029,13.3029,4.59988,2469.923,2019-10-14T13:42:12Z
2019-10-14T11:44:50Z,42.805,6.029,13.3007,4.59999,2469.923,2019-10-14T13:45:15Z
2019-10-14T11:47:53Z,42.805,6.029,13.3018,4.60006,2469.9,2019-10-14T13:48:19Z
2019-10-14T11:50:57Z,42.805,6.029,13.3015,4.59994,2469.937,2019-10-14T13:51:22Z
2019-10-14T11:54:00Z,42.805,6.029,13.2993,4.60007,2469.9,2019-10-14T13:54:25Z
2019-10-14T11:57:03Z,42.805,6.029,13.2997,4.60003,2469.923,2019-10-14T13:57:28Z
2019-10-14T12:00:06Z,42.805,6.029,13.3041,4.60020,2469.914,2019-10-14T14:00:32Z
2019-10-14T12:03:09Z,42.805,6.029,13.3016,4.60003,2469.923,2019-10-14T14:03:35Z
2019-10-14T12:06:13Z,42.805,6.029,13.3027,4.59999,2469.89,2019-10-14T14:06:38Z
2019-10-14T12:09:16Z,42.805,6.029,13.2965,4.60056,2469.89,2019-10-14T14:09:41Z
2019-10-14T12:12:19Z,42.805,6.029,13.2954,4.60045,2469.876,2019-10-14T14:12:44Z
2019-10-14T12:15:22Z,42.805,6.029,13.2958,4.60020,2469.89,2019-10-14T14:15:48Z
2019-10-14T12:18:25Z,42.805,6.029,13.2958,4.59999,2469.89,2019-10-14T14:18:51Z
2019-10-14T12:21:29Z,42.805,6.029,13.2957,4.60042,2469.914,2019-10-14T14:21:54Z
2019-10-14T12:24:32Z,42.805,6.029,13.2958,4.59999,2469.89,2019-10-14T14:24:57Z
2019-10-14T12:27:35Z,42.805,6.029,13.2957,4.59987,2469.89,2019-10-14T14:28:00Z
2019-10-14T12:30:38Z,42.805,6.029,13.2953,4.59982,2469.876,2019-10-14T14:31:04Z
2019-10-14T12:33:42Z,42.805,6.029,13.2958,4.59986,2469.876,2019-10-14T14:34:07Z
2019-10-14T12:36:45Z,42.805,6.029,13.3036,4.59977,2469.876,2019-10-14T14:37:10Z
2019-10-14T12:39:48Z,42.805,6.029,13.2960,4.59988,2469.867,2019-10-14T14:40:13Z
2019-10-14T12:42:51Z,42.805,6.029,13.2955,4.60009,2469.89,2019-10-14T14:43:17Z
2019-10-14T12:45:55Z,42.805,6.029,13.2959,4.59995,2469.89,2019-10-14T14:46:20Z
2019-10-14T12:48:58Z,42.805,6.029,13.2960,4.59980,2469.876,2019-10-14T14:49:23Z
2019-10-14T12:52:01Z,42.805,6.029,13.2976,4.59989,2469.876,2019-10-14T14:52:26Z
2019-10-14T12:55:04Z,42.805,6.029,13.3026,4.59999,2469.876,2019-10-14T14:55:30Z
2019-10-14T12:58:07Z,42.805,6.029,13.2991,4.59999,2469.89,2019-10-14T14:58:33Z
2019-10-14T13:01:11Z,42.805,6.029,13.2956,4.60015,2469.914,2019-10-14T15:01:36Z
2019-10-14T13:04:14Z,42.805,6.029,13.2963,4.60006,2469.89,2019-10-14T15:04:39Z
2019-10-14T13:07:17Z,42.805,6.029,13.2957,4.60036,2469.853,2019-10-14T15:07:42Z
2019-10-14T13:10:20Z,42.805,6.029,13.2964,4.59982,2469.853,2019-10-14T15:10:46Z
2019-10-14T13:13:23Z,42.805,6.029,13.2955,4.59989,2469.876,2019-10-14T15:13:49Z
2019-10-14T13:16:27Z,42.805,6.029,13.2955,4.60009,2469.867,2019-10-14T15:16:52Z
2019-10-14T13:19:30Z,42.805,6.029,13.2959,4.60004,2469.853,2019-10-14T15:19:55Z
2019-10-14T13:22:33Z,42.805,6.029,13.2958,4.59996,2469.89,2019-10-14T15:22:58Z
2019-10-14T13:25:36Z,42.805,6.029,13.2957,4.59982,2469.876,2019-10-14T15:26:02Z
2019-10-14T13:28:40Z,42.805,6.029,13.2954,4.59985,2469.853,2019-10-14T15:29:05Z
2019-10-14T13:31:43Z,42.805,6.029,13.2962,4.59982,2469.914,2019-10-14T15:32:08Z
2019-10-14T13:34:46Z,42.805,6.029,13.2957,4.59984,2469.853,2019-10-14T15:35:11Z
2019-10-14T13:37:49Z,42.805,6.029,13.2955,4.59983,2469.839,2019-10-14T15:38:14Z
2019-10-14T13:40:52Z,42.805,6.029,13.2955,4.59981,2469.853,2019-10-14T15:41:18Z
2019-10-14T13:43:56Z,42.805,6.029,13.2953,4.59972,2469.89,2019-10-14T15:44:21Z
2019-10-14T13:46:59Z,42.805,6.029,13.2953,4.59978,2469.853,2019-10-14T15:47:24Z
2019-10-14T13:50:02Z,42.805,6.029,13.2956,4.59976,2469.876,2019-10-14T15:50:27Z
2019-10-14T13:53:05Z,42.805,6.029,13.3011,4.59979,2469.867,2019-10-14T15:53:30Z
2019-10-14T13:56:08Z,42.805,6.029,13.2966,4.59976,2469.844,2019-10-14T15:56:34Z
2019-10-14T13:59:12Z,42.805,6.029,13.2967,4.60017,2469.867,2019-10-14T15:59:37Z
2019-10-14T14:02:15Z,42.805,6.029,13.2957,4.60076,2469.853,2019-10-14T16:02:40Z
2019-10-14T14:05:18Z,42.805,6.029,13.2955,4.60004,2469.89,2019-10-14T16:05:43Z
2019-10-14T14:08:21Z,42.805,6.029,13.2959,4.59985,2469.853,2019-10-14T16:08:46Z
2019-10-14T14:11:24Z,42.805,6.029,13.2961,4.59981,2469.876,2019-10-14T16:11:50Z
2019-10-14T14:14:28Z,42.805,6.029,13.2958,4.60001,2469.89,2019-10-14T16:14:53Z
2019-10-14T14:17:31Z,42.805,6.029,13.2961,4.60009,2469.853,2019-10-14T16:17:56Z
2019-10-14T14:20:34Z,42.805,6.029,13.2959,4.59999,2469.867,2019-10-14T16:20:59Z
2019-10-14T14:23:37Z,42.805,6.029,13.2957,4.59993,2469.853,2019-10-14T16:24:03Z
2019-10-14T14:26:40Z,42.805,6.029,13.2953,4.60006,2469.853,2019-10-14T16:27:06Z
2019-10-14T14:29:44Z,42.805,6.029,13.2954,4.59988,2469.853,2019-10-14T16:30:09Z
2019-10-14T14:32:47Z,42.805,6.029,13.2957,4.59973,2469.876,2019-10-14T16:33:12Z
2019-10-14T14:35:50Z,42.805,6.029,13.2953,4.59983,2469.83,2019-10-14T16:36:15Z
2019-10-14T14:38:53Z,42.805,6.029,13.2955,4.59984,2469.876,2019-10-14T16:39:19Z
2019-10-14T14:41:56Z,42.805,6.029,13.2957,4.59988,2469.844,2019-10-14T16:42:22Z
2019-10-14T14:45:00Z,42.805,6.029,13.2954,4.59986,2469.867,2019-10-14T16:45:25Z
2019-10-14T14:48:03Z,42.805,6.029,13.2955,4.59991,2469.867,2019-10-14T16:48:28Z
2019-10-14T14:51:06Z,42.805,6.029,13.2956,4.59987,2469.867,2019-10-14T16:51:31Z
2019-10-14T14:54:09Z,42.805,6.029,13.2953,4.59982,2469.89,2019-10-14T16:54:35Z
2019-10-14T14:57:13Z,42.805,6.029,13.2953,4.59978,2469.867,2019-10-14T16:57:38Z
2019-10-14T15:00:16Z,42.805,6.029,13.2958,4.59983,2469.867,2019-10-14T17:00:41Z
2019-10-14T15:03:19Z,42.805,6.029,13.2957,4.59986,2469.876,2019-10-14T17:03:44Z